[[{"header":{"parameterUnit":"m.s-1","parameterCategory":1,"la1":30.2991,"la2":30.254,"lo1":-89.0895,"lo2":-89.0444,"dy":0.0017,"dx":0.0017,"nx":28,"ny":28,"refTime":"2025-08-25T21:00:00:Z","depth":0,"parameterNumber":2,"parameterNumberName":"U-component_of_WINDS"},"data":[0,0,0,0,0,0,0,0,0,0,0,0,0,0,0,0,0,0,0,0,0,0,0,0,0,0,0,0,0,0,0,0,0,0,0,0,0,0,0,0,0,0,0,0,0,0,0,0,0,0,0,0,0,0,0,0,0,0,-0.1625,-0.1623,0,-0.1521,-0.152,-0.1518,-0.1453,-0.1453,-0.1453,-0.1452,-0.1344,-0.1341,-0.1339,0,0,0,0,0,0,0,0,0,0,0,0,0,-0.1766,-0.1763,-0.1625,-0.1623,-0.1622,-0.1521,-0.152,-0.1518,-0.1453,-0.1453,-0.1453,-0.1452,-0.1345,-0.1342,-0.1339,0,0,0,0,0,0,0,0,0,0,0,0,0,-0.1687,-0.1763,-0.1625,-0.1578,-0.1572,-0.1521,-0.1519,-0.1518,-0.1453,-0.1453,-0.1452,-0.1452,-0.1346,-0.1342,-0.1338,-0.1325,0,0,-0.1326,-0.1325,0,0,0,0,0,0,0,0,-0.1692,-0.1682,-0.1586,-0.1581,-0.1575,-0.1499,-0.1529,-0.1453,-0.1454,-0.1499,-0.1452,-0.1452,-0.1396,-0.1388,-0.137,-0.132,-0.1315,-0.1326,-0.1324,-0.1322,-0.1321,0,0,0,0,0,0,0,-0.1697,-0.1686,-0.1583,-0.1585,-0.1578,-0.1561,-0.155,-0.1515,-0.1451,-0.1495,-0.149,-0.1478,-0.1393,-0.1373,-0.1367,-0.1314,-0.1326,-0.1323,-0.132,-0.1319,-0.1249,-0.125,0,0,0,0,0,0,-0.1711,-0.1691,-0.1587,-0.158,-0.1633,-0.1559,-0.1546,-0.1524,-0.1452,-0.144,-0.1479,-0.1476,-0.138,-0.1371,-0.1362,-0.1343,-0.1322,-0.1319,-0.1316,-0.1249,-0.1249,-0.125,0,0,0,0,0,0,-0.1714,-0.1702,-0.1591,-0.1634,-0.1619,-0.1557,-0.1533,-0.1522,-0.1503,-0.144,-0.1428,-0.1471,-0.1379,-0.1368,-0.1335,-0.1338,-0.1317,-0.1313,-0.1248,-0.1249,-0.125,-0.1304,0,0,0,0,0,0,-0.1718,-0.1703,-0.1698,-0.1635,-0.1617,-0.1566,-0.1533,-0.1521,-0.1497,-0.1492,-0.1429,-0.1418,-0.1378,-0.1341,-0.1332,-0.1333,-0.131,-0.1248,-0.1249,-0.1249,-0.1302,-0.1307,-0.1311,0,0,0,0,0,-0.1723,-0.1717,-0.1698,-0.1686,-0.1609,-0.1566,-0.1556,-0.1511,-0.1497,-0.1491,-0.1451,-0.142,-0.134,-0.1339,-0.1327,-0.1327,-0.1247,-0.1248,-0.1249,-0.13,-0.1306,-0.1311,0,0,0,0,0,0,-0.1782,-0.1708,-0.1686,-0.1659,-0.162,-0.1556,-0.1547,-0.1518,-0.1481,-0.1478,-0.1422,-0.1409,-0.1382,-0.1351,-0.1351,-0.1311,-0.129,-0.1289,-0.1332,-0.1337,-0.1342,-0.135,-0.1307,0,0,0,0,0,-0.1791,-0.1763,-0.17,-0.1682,-0.1664,-0.1609,-0.1589,-0.1557,-0.1514,-0.1496,-0.1453,-0.1412,-0.1377,-0.1355,-0.132,-0.1297,-0.1283,-0.1291,-0.1296,-0.13,-0.13,-0.1286,-0.1289,-0.1253,-0.1253,-0.1253,0,0,-0.1811,-0.1767,-0.1753,-0.1693,-0.1659,-0.1631,-0.1595,-0.1567,-0.1545,-0.1492,-0.1459,-0.1426,-0.1376,-0.1349,-0.1334,-0.1322,-0.1306,-0.1301,-0.1305,-0.1302,-0.1287,-0.1291,-0.1294,-0.1254,-0.1254,-0.1254,0,0,-0.1833,-0.1797,-0.1779,-0.1745,-0.1694,-0.1658,-0.1654,-0.1594,-0.157,-0.1536,-0.1496,-0.1469,-0.141,-0.1377,-0.1352,-0.1362,-0.1333,-0.1352,-0.1375,-0.1363,-0.1366,-0.1368,-0.1372,-0.1374,-0.1352,-0.1352,-0.1352,0,-0.1864,-0.182,-0.1773,-0.1747,-0.1722,-0.1673,-0.1654,-0.1624,-0.1564,-0.1547,-0.1535,-0.1461,-0.1423,-0.1388,-0.139,-0.1372,-0.1365,-0.1359,-0.1369,-0.1371,-0.1372,-0.1376,-0.1377,-0.1355,-0.1354,-0.1354,-0.1354,0,-0.1861,-0.1832,-0.1823,-0.1767,-0.1741,-0.1719,-0.1668,-0.1647,-0.1618,-0.1583,-0.1549,-0.1503,-0.1458,-0.1447,-0.1418,-0.1407,-0.1402,-0.138,-0.1357,-0.1379,-0.1382,-0.1382,-0.1359,-0.1358,-0.1357,-0.1356,0,0,-0.1917,-0.1835,-0.1833,-0.1807,-0.1748,-0.1724,-0.1699,-0.1656,-0.164,-0.16,-0.1578,-0.153,-0.151,-0.1482,-0.1448,-0.1437,-0.1449,-0.1416,-0.1414,-0.1425,-0.1435,-0.1452,-0.1455,-0.1429,-0.1429,-0.1429,-0.144,0,-0.193,-0.1885,-0.1841,-0.1811,-0.1784,-0.1737,-0.1716,-0.1677,-0.1644,-0.1615,-0.1578,-0.1545,-0.1521,-0.1503,-0.149,-0.145,-0.145,-0.1449,-0.1408,-0.1407,-0.1423,-0.1456,-0.1474,-0.1486,-0.144,-0.144,-0.144,0,-0.194,-0.1903,-0.1871,-0.1814,-0.1801,-0.1783,-0.174,-0.1713,-0.1668,-0.1645,-0.1614,-0.1579,-0.1551,-0.1532,-0.1493,-0.1493,-0.1473,-0.1451,-0.1451,-0.1445,-0.1426,-0.1452,-0.1488,-0.1491,-0.1441,-0.1441,-0.1441,0,-0.1985,-0.1927,-0.19,-0.1879,-0.1813,-0.1801,-0.1773,-0.1727,-0.1704,-0.1666,-0.1651,-0.161,-0.1588,-0.1557,-0.1512,-0.1502,-0.1478,-0.1455,-0.1458,-0.1459,-0.1455,-0.1456,-0.149,-0.1442,-0.1442,-0.1442,-0.1442,0,-0.2004,-0.1987,-0.192,-0.1903,-0.1882,-0.1832,-0.1812,-0.178,-0.174,-0.1716,-0.1673,-0.1651,-0.1593,-0.1565,-0.1529,-0.1502,-0.1492,-0.1473,-0.1463,-0.1477,-0.1479,-0.1464,-0.1462,-0.1442,-0.1442,-0.1442,-0.1442,0,-0.2051,-0.2005,-0.1973,-0.1913,-0.1898,-0.1885,-0.1833,-0.1815,-0.178,-0.1751,-0.1741,-0.1685,-0.1649,-0.1601,-0.1551,-0.1527,-0.1505,-0.149,-0.1521,-0.1515,-0.1521,-0.1522,-0.1546,-0.1547,-0.1499,-0.15,-0.15,0,-0.2067,-0.2052,-0.1991,-0.1973,-0.1946,-0.1916,-0.1893,-0.1843,-0.182,-0.1768,-0.1757,-0.1718,-0.1685,-0.163,-0.1585,-0.1546,-0.153,-0.1542,-0.1524,-0.1538,-0.1531,-0.1533,-0.1531,-0.1546,-0.1547,-0.1548,-0.1548,0,-0.2101,-0.2079,-0.2047,-0.2008,-0.1981,-0.1947,-0.1912,-0.1899,-0.1841,-0.1818,-0.1782,-0.1756,-0.1705,-0.1667,-0.1622,-0.1592,-0.1561,-0.1554,-0.1553,-0.1566,-0.1585,-0.1576,-0.1533,-0.1554,-0.1553,-0.1553,-0.1552,-0.1552,-0.2133,-0.2118,-0.2073,-0.2039,-0.2007,-0.1975,-0.1955,-0.1918,-0.1887,-0.1842,-0.1814,-0.1779,-0.1735,-0.1672,-0.1643,-0.1615,-0.1602,-0.16,-0.16,-0.16,-0.1605,-0.1589,-0.1606,-0.1606,-0.1606,-0.1606,-0.1606,0,-0.2165,-0.2134,-0.2103,-0.2055,-0.2028,-0.2001,-0.1961,-0.194,-0.191,-0.1871,-0.184,-0.1798,-0.1762,-0.1714,-0.1674,-0.166,-0.1645,-0.1651,-0.1652,-0.1646,-0.1618,-0.1624,-0.1665,-0.1665,-0.1665,-0.1665,-0.1665,-0.1665,-0.2179,-0.2152,-0.2125,-0.2083,-0.2051,-0.2017,-0.1997,-0.1967,-0.1936,-0.1892,-0.1861,-0.183,-0.1788,-0.1745,-0.171,-0.1696,-0.1684,-0.1695,-0.1678,-0.1653,-0.1648,-0.1643,-0.1648,-0.1693,-0.1693,-0.1708,-0.1708,-0.1708]},{"header":{"parameterUnit":"m.s-1","parameterCategory":1,"la1":30.2991,"la2":30.254,"lo1":-89.0895,"lo2":-89.0444,"dy":0.0017,"dx":0.0017,"nx":28,"ny":28,"refTime":"2025-08-25T21:00:00:Z","depth":0,"parameterNumber":3,"parameterNumberName":"V-component_of_WINDS"},"data":[0,0,0,0,0,0,0,0,0,0,0,0,0,0,0,0,0,0,0,0,0,0,0,0,0,0,0,0,0,0,0,0,0,0,0,0,0,0,0,0,0,0,0,0,0,0,0,0,0,0,0,0,0,0,0,0,0,0,2.4065,2.4065,0,2.4057,2.4057,2.4057,2.4065,2.4065,2.4065,2.4066,2.4054,2.4054,2.4053,0,0,0,0,0,0,0,0,0,0,0,0,0,2.4086,2.4086,2.4065,2.4065,2.4065,2.4057,2.4057,2.4057,2.4065,2.4065,2.4065,2.4066,2.4054,2.4054,2.4053,0,0,0,0,0,0,0,0,0,0,0,0,0,2.4077,2.4086,2.4065,2.4068,2.4068,2.4057,2.4057,2.4057,2.4065,2.4065,2.4066,2.4066,2.4055,2.4054,2.4053,2.4037,0,0,2.405,2.405,0,0,0,0,0,0,0,0,2.4078,2.4077,2.4068,2.4068,2.4068,2.4063,2.406,2.405,2.4064,2.4066,2.4066,2.4066,2.4056,2.4055,2.4053,2.4037,2.4036,2.405,2.4049,2.4049,2.4049,0,0,0,0,0,0,0,2.4079,2.4077,2.4062,2.4068,2.4068,2.4069,2.4069,2.4058,2.4058,2.4066,2.4066,2.4065,2.4057,2.4053,2.4052,2.4036,2.405,2.4049,2.4049,2.4048,2.4008,2.4007,0,0,0,0,0,0,2.4079,2.4078,2.4062,2.4062,2.4074,2.4069,2.4068,2.4064,2.4059,2.4058,2.4065,2.4066,2.4055,2.4053,2.4052,2.4034,2.4049,2.4048,2.4048,2.4008,2.4008,2.4007,0,0,0,0,0,0,2.408,2.4078,2.4063,2.407,2.4068,2.4068,2.4063,2.4063,2.406,2.4058,2.4058,2.4062,2.4055,2.4053,2.4041,2.4034,2.4048,2.4047,2.4009,2.4008,2.4008,2.3997,0,0,0,0,0,0,2.408,2.4078,2.4072,2.407,2.4068,2.4053,2.4063,2.4063,2.4059,2.406,2.4055,2.4055,2.4055,2.4043,2.404,2.4033,2.4046,2.401,2.4009,2.4008,2.3998,2.3996,2.3994,0,0,0,0,0,2.4081,2.4069,2.4072,2.407,2.4061,2.4052,2.4051,2.4053,2.4058,2.4053,2.4051,2.4055,2.4035,2.4041,2.4039,2.4031,2.401,2.4009,2.4008,2.3999,2.3997,2.3994,0,0,0,0,0,0,2.4069,2.4069,2.4072,2.4059,2.4056,2.4053,2.4046,2.405,2.4044,2.4045,2.4047,2.4045,2.4033,2.4031,2.4038,2.4016,2.4023,2.4022,2.4018,2.4015,2.4013,2.4014,2.4045,0,0,0,0,0,2.4066,2.4059,2.4059,2.4047,2.4046,2.4046,2.4042,2.4044,2.4041,2.4039,2.4037,2.4032,2.4025,2.402,2.4013,2.3998,2.3997,2.3991,2.399,2.3988,2.3986,2.3979,2.3976,2.4003,2.4003,2.4003,0,0,2.4057,2.4056,2.4052,2.4045,2.4043,2.4036,2.4045,2.4037,2.4031,2.4037,2.4026,2.4024,2.402,2.4006,2.4,2.4004,2.3979,2.3986,2.3985,2.3984,2.3977,2.3974,2.3972,2.4003,2.4003,2.4003,0,0,2.4038,2.4037,2.4027,2.4025,2.4022,2.4023,2.4021,2.4018,2.4018,2.4007,2.4011,2.4005,2.3992,2.3989,2.3985,2.3967,2.397,2.3964,2.3954,2.3946,2.3944,2.3942,2.3936,2.3933,2.3963,2.3963,2.3963,0,2.4028,2.4018,2.4022,2.4014,2.4011,2.4017,2.4008,2.4005,2.3999,2.3997,2.4001,2.3987,2.3984,2.397,2.3966,2.3963,2.396,2.3964,2.3945,2.3943,2.3941,2.3934,2.3932,2.3962,2.3962,2.3962,2.3962,0,2.4006,2.3999,2.3992,2.3987,2.3983,2.3974,2.3976,2.3972,2.3975,2.3975,2.3964,2.3961,2.3954,2.3951,2.3953,2.3937,2.394,2.3944,2.3952,2.3938,2.3932,2.3929,2.3961,2.3961,2.3962,2.3962,0,0,2.3978,2.3977,2.3974,2.3973,2.397,2.3965,2.3956,2.3951,2.3947,2.3943,2.3936,2.3926,2.3931,2.3927,2.3928,2.3922,2.3907,2.3927,2.3927,2.3924,2.3891,2.3887,2.3884,2.391,2.3909,2.3909,2.3891,0,2.3959,2.3945,2.3949,2.3935,2.3929,2.3935,2.3928,2.3926,2.3926,2.392,2.392,2.3913,2.392,2.3917,2.3911,2.391,2.3901,2.3912,2.3902,2.3902,2.3903,2.3881,2.3877,2.386,2.3889,2.3888,2.3888,0,2.3935,2.3931,2.3917,2.3917,2.3914,2.3907,2.3903,2.3898,2.3895,2.3896,2.3892,2.3895,2.3887,2.3895,2.3883,2.3891,2.3887,2.3886,2.3886,2.3884,2.3894,2.3879,2.3854,2.3852,2.3884,2.3885,2.3885,0,2.3916,2.3908,2.3898,2.3897,2.3896,2.3891,2.3891,2.3889,2.3885,2.3881,2.3879,2.3874,2.387,2.3866,2.3868,2.3874,2.3855,2.3864,2.3855,2.3855,2.385,2.385,2.3825,2.3849,2.3849,2.3849,2.3849,0,2.3894,2.3885,2.389,2.3884,2.3874,2.3879,2.3869,2.3869,2.3867,2.3861,2.3866,2.386,2.3863,2.3857,2.3858,2.3848,2.3847,2.3847,2.3847,2.3846,2.3846,2.3843,2.3844,2.3848,2.3848,2.3848,2.3848,0,2.3871,2.3874,2.3865,2.3865,2.3865,2.3858,2.3858,2.3852,2.3854,2.3846,2.3844,2.3846,2.3839,2.3841,2.3833,2.3834,2.3821,2.3823,2.3823,2.3823,2.3814,2.3815,2.3785,2.3782,2.3808,2.3808,2.3808,0,2.3857,2.385,2.3851,2.3847,2.3847,2.3841,2.3838,2.3843,2.3839,2.3836,2.3831,2.3825,2.3821,2.381,2.381,2.3805,2.3807,2.3797,2.3806,2.3805,2.3806,2.3807,2.3806,2.3795,2.3794,2.3794,2.3794,0,2.3831,2.3833,2.3829,2.3826,2.3823,2.382,2.3818,2.3815,2.3819,2.3815,2.3809,2.3805,2.3799,2.3793,2.3788,2.3787,2.3791,2.3791,2.3789,2.3787,2.3787,2.3787,2.3817,2.3792,2.3792,2.3792,2.3792,2.3792,2.3812,2.3806,2.3806,2.3802,2.3801,2.3799,2.3794,2.3795,2.3791,2.3786,2.3789,2.3782,2.378,2.3774,2.3773,2.3767,2.3771,2.3767,2.3766,2.3765,2.3764,2.3789,2.3766,2.3766,2.3766,2.3766,2.3766,0,2.3786,2.3787,2.3783,2.378,2.3777,2.3782,2.378,2.3777,2.3771,2.3769,2.3765,2.3759,2.3754,2.3754,2.3749,2.3745,2.3746,2.3743,2.3743,2.3743,2.3761,2.3764,2.3742,2.3742,2.3742,2.3742,2.3742,2.3742,2.3772,2.3764,2.3766,2.3757,2.3758,2.3752,2.375,2.3749,2.3748,2.374,2.3737,2.3737,2.3736,2.3732,2.3727,2.3727,2.3725,2.3721,2.3722,2.3739,2.3741,2.3744,2.3746,2.3721,2.3721,2.3704,2.3704,2.3704]}]]